Fairbanks, AK

3:14 PM AKDT on October 13, 2019 (GMT -0800)
Fairbanks International

Weather History for PAFA - May, 2019

Change the Weather History Date:

Saturday, May 18, 2019

  Actual Average Record
Temperature  
Mean Temperature 57 °F 50 °F  
Max Temperature 67 °F 62 °F 77 °F (1977)
Min Temperature 47 °F 39 °F 24 °F (2013)
Degree Days  
Heating Degree Days 8 15  
Month to date heating degree days 265 329  
Since 1 July heating degree days 11527 13353  
Cooling Degree Days 0 0  
Month to date cooling degree days 0 0  
Year to date cooling degree days 0 0  
Growing Degree Days 5 (Base 50)    
Moisture  
Dew Point 43 °F    
Average Humidity 70    
Maximum Humidity 90    
Minimum Humidity 34    
Precipitation  
Precipitation 0.35 in 0.02 in 0.45 in (1940)
Month to date precipitation 0.59 0.31  
Year to date precipitation 3.07 1.87  
Snow  
Snow 0.00 in 0.10 in 1.30 in (1943)
Month to date snowfall T 0.8  
Since 1 July snowfall 57.5 64.9  
Snow Depth 0.00 in    
Sea Level Pressure  
Sea Level Pressure 29.73 in    
Wind  
Wind Speed 4 mph (SSE)    
Max Wind Speed 16 mph    
Max Gust Speed 25 mph    
Visibility 9 miles    
Events Rain    
T = Trace of Precipitation, MM = Missing Value Source: NWS Daily Summary

Daily Weather History Graph

Daily Weather History Graph

Search for Another Location

Airport or City:

Astronomy

May. 18, 2019 Rise Set
Actual Time 4:18 AM AKDT 11:19 PM AKDT
Civil Twilight 2:20 AM AKDT 1:15 AM AKDT
Nautical Twilight Sun does not rise Sun does not rise
Astronomical Twilight Sun does not rise Sun does not rise
Moon 10:59 PM AKDT (5/18) 5:19 AM AKDT (5/18)
Length of Visible Light 22h 55m
Length of Day
19h 01m
Full, 100% of the Moon is Illuminated
May 18
Full
May 18
Full
May 26
Last Quarter
Jun 3
New
Jun 9
First Quarter

Hourly Weather History & Observations

Time (AKDT) Temp. Dew Point Humidity Pressure Visibility Wind Dir Wind Speed Gust Speed Precip Events Conditions
12:53 AM 48.9 °F 39.0 °F 69% 29.65 in 10.0 mi NE 8.1 mph - N/A   Mostly Cloudy
1:53 AM 51.1 °F 37.9 °F 61% 29.66 in 10.0 mi North 6.9 mph - N/A   Mostly Cloudy
2:53 AM 48.9 °F 42.1 °F 77% 29.68 in 10.0 mi NE 6.9 mph - N/A   Scattered Clouds
3:53 AM 48.0 °F 39.9 °F 74% 29.69 in 10.0 mi SW 4.6 mph - 0.00 in   Mostly Cloudy
4:53 AM 48.0 °F 43.0 °F 83% 29.71 in 10.0 mi Calm Calm - N/A   Mostly Cloudy
6:53 AM 48.0 °F 41.0 °F 77% 29.73 in 10.0 mi Calm Calm - N/A   Mostly Cloudy
7:53 AM 50.0 °F 39.9 °F 68% 29.74 in 10.0 mi Calm Calm - N/A   Mostly Cloudy
8:53 AM 51.1 °F 39.9 °F 66% 29.75 in 10.0 mi Calm Calm - N/A   Mostly Cloudy
9:53 AM 53.1 °F 39.9 °F 61% 29.75 in 10.0 mi Calm Calm - N/A   Mostly Cloudy
10:53 AM 55.9 °F 41.0 °F 57% 29.75 in 10.0 mi Calm Calm - N/A   Mostly Cloudy
11:53 AM 57.9 °F 42.1 °F 56% 29.75 in 10.0 mi WSW 3.5 mph - N/A   Mostly Cloudy
12:53 PM 62.1 °F 41.0 °F 46% 29.73 in 10.0 mi Calm Calm - N/A   Mostly Cloudy
1:53 PM 64.0 °F 39.0 °F 40% 29.71 in 10.0 mi NNW 4.6 mph - N/A   Mostly Cloudy
2:53 PM 66.0 °F 37.0 °F 34% 29.70 in 10.0 mi SE 3.5 mph - N/A   Mostly Cloudy
3:53 PM 64.9 °F 36.0 °F 34% 29.69 in 10.0 mi South 3.5 mph - N/A   Mostly Cloudy
4:47 PM 53.6 °F 44.6 °F 72% 29.72 in 2.0 mi ENE 16.1 mph 25.3 mph 0.06 in Rain Heavy Rain
4:53 PM 53.1 °F 46.0 °F 77% 29.74 in 1.5 mi NE 10.4 mph - 0.15 in Rain Heavy Rain
4:59 PM 53.1 °F 46.0 °F 77% 29.72 in 3.0 mi East 8.1 mph - 0.05 in Rain Rain
5:53 PM 53.1 °F 48.0 °F 83% 29.76 in 10.0 mi South 4.6 mph - 0.14 in Rain Light Rain
6:53 PM 53.1 °F 48.0 °F 83% 29.76 in 9.0 mi West 4.6 mph - 0.04 in Rain Light Rain
7:53 PM 53.1 °F 48.0 °F 83% 29.76 in 10.0 mi Calm Calm - 0.02 in Rain Light Rain
8:53 PM 53.1 °F 48.0 °F 83% 29.77 in 10.0 mi East 4.6 mph - 0.00 in   Overcast
9:53 PM 52.0 °F 48.0 °F 86% 29.77 in 10.0 mi Calm Calm - N/A   Mostly Cloudy
10:53 PM 51.1 °F 48.0 °F 89% 29.78 in 10.0 mi SSW 3.5 mph - N/A   Overcast
11:00 PM 51.8 °F 48.2 °F 88% 29.76 in 10.0 mi SW 3.5 mph - N/A   Mostly Cloudy
11:36 PM 50.0 °F 46.4 °F 87% 29.77 in 10.0 mi South 3.5 mph - N/A Rain Light Rain
11:53 PM 48.9 °F 46.0 °F 90% 29.78 in 10.0 mi South 5.8 mph - 0.00 in Rain Light Rain